RPC6432 RPMZ-RPSP

Flight info

Callsign RPC6432
Flight time 1h 17m
Altitude 7000
Route PARAL2B PARAL G578 ALDIN
Aircraft BE36/L-DFGLOY/S

Departure

Time 2026-04-22 09:00
Airport Zamboanga International Airport (RPMZ)

Arrival

Time 2026-04-22 10:18
Airport Bohol-Panglao International Airport (RPSP)
Time Latitude Longitude Altitude Speed Heading
2026-04-22 08:42 6.92053 122.06079 30 ft 0 kts 156°
2026-04-22 08:57 6.92052 122.06086 30 ft 3 kts 50°
2026-04-22 08:57 6.92109 122.06094 30 ft 12 kts 358°
2026-04-22 08:57 6.92142 122.06122 31 ft 11 kts 93°
2026-04-22 08:57 6.92136 122.06212 31 ft 10 kts 94°
2026-04-22 08:58 6.92154 122.06252 31 ft 7 kts
2026-04-22 08:58 6.92214 122.06261 31 ft 8 kts 45°
2026-04-22 08:58 6.92217 122.06350 30 ft 19 kts 94°
2026-04-22 08:58 6.92190 122.06474 30 ft 7 kts 83°
2026-04-22 08:59 6.92209 122.06480 30 ft 0 kts 274°
2026-04-22 08:59 6.92220 122.06297 31 ft 59 kts 274°
2026-04-22 09:00 6.92258 122.05726 73 ft 98 kts 274°
2026-04-22 09:00 6.92310 122.05012 364 ft 101 kts 274°
2026-04-22 09:00 6.92357 122.04266 559 ft 112 kts 274°
2026-04-22 09:00 6.92373 122.03462 777 ft 117 kts 269°
2026-04-22 09:01 6.92370 122.02619 949 ft 123 kts 271°
2026-04-22 09:01 6.92149 122.01804 1191 ft 126 kts 233°
2026-04-22 09:01 6.91352 122.01393 1363 ft 137 kts 188°
2026-04-22 09:01 6.90417 122.01340 1632 ft 134 kts 187°
2026-04-22 09:02 6.89480 122.01342 1828 ft 136 kts 183°
2026-04-22 09:02 6.88531 122.01363 2025 ft 137 kts 181°
2026-04-22 09:02 6.87581 122.01397 2227 ft 138 kts 180°
2026-04-22 09:02 6.86621 122.01427 2410 ft 139 kts 180°
2026-04-22 09:03 6.85648 122.01438 2600 ft 140 kts 181°
2026-04-22 09:03 6.84693 122.01532 2814 ft 139 kts 158°
2026-04-22 09:03 6.84009 122.02200 2943 ft 143 kts 112°
2026-04-22 09:03 6.83967 122.03186 3061 ft 144 kts 69°
2026-04-22 09:04 6.84629 122.03904 3222 ft 142 kts 35°
2026-04-22 09:04 6.85406 122.04504 3383 ft 142 kts 44°
2026-04-22 09:04 6.86122 122.05202 3523 ft 143 kts 42°
2026-04-22 09:04 6.86945 122.05688 3735 ft 138 kts
2026-04-22 09:05 6.87895 122.05576 3858 ft 140 kts 349°
2026-04-22 09:05 6.88850 122.05473 4050 ft 137 kts 355°
2026-04-22 09:05 6.89813 122.05430 4189 ft 139 kts 357°
2026-04-22 09:05 6.90771 122.05367 4357 ft 138 kts 354°
2026-04-22 09:06 6.91734 122.05268 4482 ft 140 kts 355°
2026-04-22 09:06 6.92703 122.05233 4629 ft 139 kts
2026-04-22 09:06 6.93596 122.05642 4711 ft 143 kts 41°
2026-04-22 09:06 6.94197 122.06422 4896 ft 140 kts 57°
2026-04-22 09:07 6.94804 122.07147 5041 ft 139 kts 33°
2026-04-22 09:07 6.95691 122.07556 5155 ft 141 kts 22°
2026-04-22 09:07 6.96600 122.07933 5277 ft 141 kts 24°
2026-04-22 09:07 6.97488 122.08340 5421 ft 140 kts 26°
2026-04-22 09:08 6.98342 122.08789 5602 ft 136 kts 30°
2026-04-22 09:08 6.99155 122.09269 5796 ft 134 kts 31°
2026-04-22 09:08 6.99955 122.09729 5990 ft 130 kts 30°
2026-04-22 09:08 7.00740 122.10163 6193 ft 127 kts 29°
2026-04-22 09:09 7.01476 122.10639 6398 ft 125 kts 37°
2026-04-22 09:09 7.02168 122.11171 6560 ft 126 kts 37°
2026-04-22 09:09 7.02877 122.11689 6711 ft 127 kts 35°
2026-04-22 09:09 7.03602 122.12189 6865 ft 127 kts 34°
2026-04-22 09:10 7.04356 122.12654 7017 ft 127 kts 30°
2026-04-22 09:10 7.05137 122.13072 7169 ft 128 kts 28°
2026-04-22 09:10 7.05937 122.13492 7263 ft 132 kts 28°
2026-04-22 09:10 7.06763 122.13944 7307 ft 139 kts 30°
2026-04-22 09:11 7.07629 122.14430 7327 ft 146 kts 30°
2026-04-22 09:11 7.08536 122.14935 7315 ft 152 kts 29°
2026-04-22 09:11 7.09482 122.15453 7284 ft 157 kts 29°
2026-04-22 09:11 7.10452 122.15982 7246 ft 161 kts 29°
2026-04-22 09:12 7.11428 122.16520 7205 ft 163 kts 29°
2026-04-22 09:12 7.12442 122.17081 7161 ft 165 kts 29°
2026-04-22 09:12 7.13454 122.17639 7116 ft 167 kts 29°
2026-04-22 09:12 7.14477 122.18201 7073 ft 169 kts 29°
2026-04-22 09:13 7.15517 122.18772 7032 ft 171 kts 29°
2026-04-22 09:13 7.16556 122.19345 7013 ft 170 kts 29°
2026-04-22 09:13 7.17593 122.19917 6999 ft 169 kts 29°
2026-04-22 09:13 7.18623 122.20484 6999 ft 169 kts 29°
2026-04-22 09:14 7.19650 122.21049 6997 ft 168 kts 29°
2026-04-22 09:14 7.20673 122.21612 6998 ft 167 kts 29°
2026-04-22 09:14 7.21692 122.22174 6998 ft 167 kts 29°
2026-04-22 09:14 7.22708 122.22734 6994 ft 167 kts 29°
2026-04-22 09:15 7.23727 122.23295 7001 ft 167 kts 29°
2026-04-22 09:15 7.24402 122.23666 7000 ft 167 kts 29°
2026-04-22 09:15 7.25764 122.24417 7000 ft 167 kts 29°
2026-04-22 09:15 7.26767 122.24969 7000 ft 167 kts 29°
2026-04-22 09:16 7.27455 122.25348 6996 ft 167 kts 29°
2026-04-22 09:16 7.28816 122.26098 6997 ft 166 kts 29°
2026-04-22 09:16 7.29815 122.26655 7000 ft 167 kts 30°
2026-04-22 09:16 7.30822 122.27233 7000 ft 167 kts 30°
2026-04-22 09:17 7.31832 122.27809 6996 ft 167 kts 30°
2026-04-22 09:17 7.32844 122.28378 6997 ft 167 kts 30°
2026-04-22 09:17 7.33857 122.28948 7001 ft 167 kts 30°
2026-04-22 09:17 7.34871 122.29522 6999 ft 167 kts 30°
2026-04-22 09:18 7.35555 122.29910 6995 ft 167 kts 30°
2026-04-22 09:18 7.36899 122.30672 6991 ft 167 kts 30°
2026-04-22 09:18 7.37584 122.31060 6990 ft 167 kts 30°
2026-04-22 09:18 7.38601 122.31634 6986 ft 167 kts 30°
2026-04-22 09:19 7.39614 122.32208 6990 ft 167 kts 30°
2026-04-22 09:19 7.40628 122.32782 6990 ft 167 kts 30°
2026-04-22 09:19 7.41640 122.33355 6991 ft 167 kts 30°
2026-04-22 09:19 7.42652 122.33928 6991 ft 167 kts 30°
2026-04-22 09:20 7.43668 122.34503 6987 ft 168 kts 30°
2026-04-22 09:20 7.44685 122.35079 6991 ft 168 kts 30°
2026-04-22 09:20 7.45704 122.35658 6991 ft 168 kts 30°
2026-04-22 09:20 7.46710 122.36226 6987 ft 169 kts 30°
2026-04-22 09:21 7.47733 122.36805 6991 ft 169 kts 30°
2026-04-22 09:21 7.48757 122.37385 6991 ft 169 kts 30°
2026-04-22 09:21 7.49782 122.37966 6991 ft 169 kts 30°
2026-04-22 09:21 7.50807 122.38546 6985 ft 169 kts 30°
2026-04-22 09:22 7.51832 122.39127 6990 ft 169 kts 30°
2026-04-22 09:22 7.52855 122.39707 6990 ft 169 kts 30°
2026-04-22 09:22 7.53881 122.40288 6991 ft 169 kts 30°
2026-04-22 09:22 7.54904 122.40868 6991 ft 169 kts 30°
2026-04-22 09:23 7.55930 122.41449 6991 ft 169 kts 30°
2026-04-22 09:23 7.56955 122.42030 6993 ft 169 kts 30°
2026-04-22 09:23 7.57980 122.42611 6989 ft 169 kts 30°
2026-04-22 09:23 7.59007 122.43193 6992 ft 169 kts 30°
2026-04-22 09:24 7.60033 122.43774 6992 ft 169 kts 30°
2026-04-22 09:24 7.61060 122.44356 6991 ft 169 kts 30°
2026-04-22 09:24 7.62087 122.44938 6991 ft 169 kts 30°
2026-04-22 09:24 7.63114 122.45521 6991 ft 169 kts 30°
2026-04-22 09:25 7.64141 122.46103 6988 ft 169 kts 30°
2026-04-22 09:25 7.65167 122.46684 6991 ft 169 kts 30°
2026-04-22 09:25 7.66195 122.47267 6992 ft 169 kts 30°
2026-04-22 09:25 7.67221 122.47849 6991 ft 169 kts 30°
2026-04-22 09:26 7.68248 122.48432 6991 ft 169 kts 30°
2026-04-22 09:26 7.69275 122.49013 6991 ft 169 kts 30°
2026-04-22 09:26 7.70301 122.49595 6991 ft 169 kts 30°
2026-04-22 09:26 7.71322 122.50174 6992 ft 168 kts 30°
2026-04-22 09:27 7.72343 122.50753 6993 ft 168 kts 30°
2026-04-22 09:27 7.73369 122.51335 6990 ft 169 kts 30°
2026-04-22 09:27 7.74394 122.51917 6994 ft 169 kts 30°
2026-04-22 09:27 7.75420 122.52499 6994 ft 170 kts 30°
2026-04-22 09:28 7.76441 122.53078 6992 ft 171 kts 30°
2026-04-22 09:28 7.77496 122.53675 6993 ft 173 kts 30°
2026-04-22 09:28 7.78524 122.54259 6991 ft 172 kts 30°
2026-04-22 09:28 7.79562 122.54847 6989 ft 171 kts 30°
2026-04-22 09:29 7.80597 122.55436 6987 ft 170 kts 30°
2026-04-22 09:29 7.81629 122.56020 6991 ft 170 kts 30°
2026-04-22 09:29 7.82667 122.56611 6991 ft 171 kts 30°
2026-04-22 09:29 7.83703 122.57199 6991 ft 171 kts 30°
2026-04-22 09:30 7.84733 122.57782 6991 ft 170 kts 30°
2026-04-22 09:30 7.85763 122.58366 6991 ft 170 kts 30°
2026-04-22 09:30 7.86792 122.58951 6992 ft 170 kts 30°
2026-04-22 09:30 7.87822 122.59536 6985 ft 170 kts 30°
2026-04-22 09:31 7.88851 122.60121 6991 ft 170 kts 30°
2026-04-22 09:31 7.89882 122.60705 6988 ft 170 kts 30°
2026-04-22 09:31 7.90913 122.61290 6992 ft 170 kts 30°
2026-04-22 09:31 7.91946 122.61876 6990 ft 170 kts 30°
2026-04-22 09:32 7.92975 122.62461 6990 ft 170 kts 30°
2026-04-22 09:32 7.94003 122.63045 6992 ft 170 kts 30°
2026-04-22 09:32 7.95034 122.63630 6992 ft 170 kts 30°
2026-04-22 09:32 7.96066 122.64216 6989 ft 170 kts 30°
2026-04-22 09:33 7.97095 122.64800 6993 ft 170 kts 30°
2026-04-22 09:33 7.98126 122.65386 6992 ft 170 kts 30°
2026-04-22 09:33 7.99155 122.65971 6991 ft 170 kts 30°
2026-04-22 09:33 8.00179 122.66552 6990 ft 169 kts 30°
2026-04-22 09:34 8.01205 122.67134 6991 ft 170 kts 30°
2026-04-22 09:34 8.02235 122.67719 6986 ft 170 kts 30°
2026-04-22 09:34 8.03264 122.68305 6998 ft 169 kts 30°
2026-04-22 09:35 8.05312 122.69468 7014 ft 169 kts 30°
2026-04-22 09:35 8.06336 122.70050 7015 ft 169 kts 30°
2026-04-22 09:35 8.07363 122.70633 7014 ft 169 kts 30°
2026-04-22 09:35 8.08384 122.71214 7015 ft 169 kts 30°
2026-04-22 09:36 8.09412 122.71798 7017 ft 169 kts 30°
2026-04-22 09:36 8.10438 122.72381 7016 ft 170 kts 30°
2026-04-22 09:36 8.11467 122.72966 7015 ft 170 kts 30°
2026-04-22 09:36 8.12492 122.73549 7015 ft 170 kts 30°
2026-04-22 09:37 8.13519 122.74133 7015 ft 170 kts 30°
2026-04-22 09:37 8.14549 122.74718 7017 ft 170 kts 30°
2026-04-22 09:37 8.15578 122.75302 7014 ft 170 kts 30°
2026-04-22 09:37 8.16590 122.75878 7014 ft 170 kts 30°
2026-04-22 09:38 8.17632 122.76471 7014 ft 170 kts 30°
2026-04-22 09:38 8.18646 122.77048 7014 ft 170 kts 30°
2026-04-22 09:38 8.19674 122.77632 7017 ft 170 kts 30°
2026-04-22 09:38 8.20702 122.78216 7015 ft 169 kts 30°
2026-04-22 09:39 8.21729 122.78801 7015 ft 170 kts 30°
2026-04-22 09:39 8.22755 122.79385 7017 ft 169 kts 30°
2026-04-22 09:39 8.23784 122.79970 7015 ft 170 kts 30°
2026-04-22 09:39 8.24814 122.80555 7015 ft 170 kts 30°
2026-04-22 09:40 8.25844 122.81141 7016 ft 170 kts 30°
2026-04-22 09:40 8.26874 122.81727 7014 ft 170 kts 30°
2026-04-22 09:40 8.27902 122.82312 7014 ft 170 kts 30°
2026-04-22 09:40 8.28930 122.82897 7015 ft 170 kts 30°
2026-04-22 09:41 8.29959 122.83483 7015 ft 170 kts 30°
2026-04-22 09:41 8.30988 122.84068 7018 ft 169 kts 30°
2026-04-22 09:41 8.32014 122.84651 7015 ft 170 kts 30°
2026-04-22 09:41 8.33043 122.85236 7015 ft 170 kts 30°
2026-04-22 09:42 8.34070 122.85821 7018 ft 169 kts 30°
2026-04-22 09:42 8.35092 122.86403 7017 ft 169 kts 30°
2026-04-22 09:42 8.36116 122.86985 7015 ft 169 kts 30°
2026-04-22 09:42 8.37141 122.87570 7015 ft 169 kts 30°
2026-04-22 09:43 8.38167 122.88155 7016 ft 169 kts 30°
2026-04-22 09:43 8.39194 122.88739 7016 ft 170 kts 30°
2026-04-22 09:43 8.40224 122.89324 7016 ft 170 kts 30°
2026-04-22 09:43 8.41254 122.89911 7015 ft 170 kts 30°
2026-04-22 09:44 8.42283 122.90497 7015 ft 170 kts 30°
2026-04-22 09:44 8.43311 122.91081 7018 ft 169 kts 31°
2026-04-22 09:44 8.44336 122.91666 7015 ft 169 kts 31°
2026-04-22 09:44 8.45358 122.92249 7015 ft 169 kts 31°
2026-04-22 09:45 8.46383 122.92833 7016 ft 169 kts 30°
2026-04-22 09:45 8.47410 122.93416 7016 ft 169 kts 31°
2026-04-22 09:45 8.48434 122.94000 7016 ft 169 kts 31°
2026-04-22 09:45 8.49459 122.94584 7015 ft 169 kts 31°
2026-04-22 09:46 8.50483 122.95168 7015 ft 169 kts 31°
2026-04-22 09:46 8.51509 122.95751 7017 ft 169 kts 31°
2026-04-22 09:46 8.52534 122.96335 7013 ft 169 kts 31°
2026-04-22 09:46 8.53543 122.96911 7009 ft 169 kts 31°
2026-04-22 09:47 8.54568 122.97495 7009 ft 169 kts 31°
2026-04-22 09:47 8.55593 122.98080 7008 ft 170 kts 31°
2026-04-22 09:47 8.56620 122.98665 7005 ft 169 kts 31°
2026-04-22 09:47 8.57646 122.99249 7008 ft 169 kts 31°
2026-04-22 09:48 8.58672 122.99833 7010 ft 169 kts 31°
2026-04-22 09:48 8.59697 123.00417 7003 ft 169 kts 31°
2026-04-22 09:48 8.60722 123.01002 7004 ft 170 kts 31°
2026-04-22 09:48 8.61747 123.01587 7007 ft 169 kts 31°
2026-04-22 09:49 8.62773 123.02172 7007 ft 169 kts 31°
2026-04-22 09:49 8.63799 123.02756 7000 ft 169 kts 31°
2026-04-22 09:49 8.64825 123.03342 7008 ft 169 kts 31°
2026-04-22 09:49 8.65852 123.03927 7007 ft 169 kts 31°
2026-04-22 09:50 8.66878 123.04512 7007 ft 170 kts 31°
2026-04-22 09:50 8.67903 123.05097 7001 ft 169 kts 31°
2026-04-22 09:50 8.68890 123.05659 7007 ft 169 kts 31°
2026-04-22 09:50 8.69916 123.06244 7013 ft 169 kts 31°
2026-04-22 09:51 8.70937 123.06827 7037 ft 168 kts 31°
2026-04-22 09:51 8.71952 123.07407 7072 ft 167 kts 31°
2026-04-22 09:51 8.72957 123.07979 7111 ft 165 kts 31°
2026-04-22 09:51 8.73955 123.08548 7152 ft 164 kts 31°
2026-04-22 09:52 8.74935 123.09108 7193 ft 164 kts 31°
2026-04-22 09:52 8.75923 123.09672 7235 ft 163 kts 31°
2026-04-22 09:52 8.76908 123.10233 7279 ft 162 kts 31°
2026-04-22 09:52 8.77892 123.10795 7312 ft 163 kts 31°
2026-04-22 09:53 8.78883 123.11362 7327 ft 164 kts 31°
2026-04-22 09:53 8.79885 123.11933 7335 ft 166 kts 31°
2026-04-22 09:53 8.80894 123.12508 7338 ft 167 kts 31°
2026-04-22 09:53 8.81906 123.13087 7339 ft 168 kts 31°
2026-04-22 09:54 8.82924 123.13667 7340 ft 168 kts 31°
2026-04-22 09:54 8.83945 123.14250 7342 ft 169 kts 31°
2026-04-22 09:54 8.84965 123.14832 7345 ft 168 kts 31°
2026-04-22 09:54 8.85984 123.15415 7347 ft 169 kts 31°
2026-04-22 09:55 8.87009 123.16000 7348 ft 169 kts 31°
2026-04-22 09:55 8.88036 123.16585 7348 ft 169 kts 31°
2026-04-22 09:55 8.89062 123.17171 7349 ft 170 kts 31°
2026-04-22 09:55 8.90085 123.17756 7349 ft 170 kts 31°
2026-04-22 09:56 8.91113 123.18343 7348 ft 170 kts 31°
2026-04-22 09:56 8.92143 123.18931 7348 ft 170 kts 31°
2026-04-22 09:56 8.93171 123.19519 7348 ft 170 kts 31°
2026-04-22 09:56 8.94200 123.20106 7349 ft 170 kts 31°
2026-04-22 09:57 8.95230 123.20695 7349 ft 170 kts 31°
2026-04-22 09:57 8.96260 123.21283 7349 ft 170 kts 31°
2026-04-22 09:57 8.97291 123.21872 7349 ft 170 kts 31°
2026-04-22 09:57 8.98323 123.22462 7349 ft 170 kts 31°
2026-04-22 09:58 8.99355 123.23051 7349 ft 170 kts 31°
2026-04-22 09:58 9.00389 123.23642 7348 ft 171 kts 31°
2026-04-22 09:58 9.01407 123.24224 7348 ft 171 kts 31°
2026-04-22 09:58 9.02438 123.24814 7348 ft 171 kts 31°
2026-04-22 09:59 9.03473 123.25406 7348 ft 171 kts 31°
2026-04-22 09:59 9.04506 123.25995 7348 ft 171 kts 31°
2026-04-22 09:59 9.05540 123.26586 7349 ft 171 kts 31°
2026-04-22 09:59 9.06516 123.27145 7349 ft 171 kts 31°
2026-04-22 10:00 9.07551 123.27736 7348 ft 171 kts 31°
2026-04-22 10:00 9.08587 123.28327 7348 ft 171 kts 31°
2026-04-22 10:00 9.09620 123.28919 7348 ft 171 kts 31°
2026-04-22 10:00 9.10651 123.29510 7348 ft 171 kts 31°
2026-04-22 10:01 9.11685 123.30102 7349 ft 170 kts 32°
2026-04-22 10:01 9.12430 123.30985 7349 ft 167 kts 69°
2026-04-22 10:01 9.12820 123.32094 7350 ft 168 kts 72°
2026-04-22 10:01 9.13179 123.33211 7350 ft 168 kts 73°
2026-04-22 10:02 9.13549 123.34332 7349 ft 168 kts 69°
2026-04-22 10:02 9.14126 123.35358 7348 ft 168 kts 57°
2026-04-22 10:02 9.14835 123.36304 7348 ft 169 kts 51°
2026-04-22 10:02 9.15603 123.37195 7348 ft 169 kts 49°
2026-04-22 10:03 9.16399 123.38070 7349 ft 170 kts 48°
2026-04-22 10:03 9.17210 123.38942 7349 ft 170 kts 48°
2026-04-22 10:03 9.18048 123.39789 7349 ft 170 kts 45°
2026-04-22 10:03 9.18922 123.40597 7349 ft 170 kts 43°
2026-04-22 10:04 9.19794 123.41403 7348 ft 170 kts 44°
2026-04-22 10:04 9.20654 123.42222 7348 ft 170 kts 45°
2026-04-22 10:04 9.21514 123.43037 7348 ft 169 kts 44°
2026-04-22 10:04 9.22369 123.43848 7348 ft 169 kts 44°
2026-04-22 10:05 9.23231 123.44660 7349 ft 170 kts 44°
2026-04-22 10:05 9.24101 123.45477 7261 ft 170 kts 44°
2026-04-22 10:05 9.24957 123.46284 7135 ft 167 kts 44°
2026-04-22 10:05 9.25793 123.47071 7051 ft 163 kts 44°
2026-04-22 10:06 9.26344 123.47590 7001 ft 164 kts 44°
2026-04-22 10:06 9.27459 123.48642 6900 ft 164 kts 44°
2026-04-22 10:06 9.28012 123.49164 6851 ft 164 kts 44°
2026-04-22 10:06 9.29116 123.50205 6753 ft 164 kts 44°
2026-04-22 10:07 9.29952 123.50991 6678 ft 164 kts 44°
2026-04-22 10:07 9.30785 123.51776 6604 ft 164 kts 44°
2026-04-22 10:07 9.31348 123.52308 6553 ft 164 kts 45°
2026-04-22 10:07 9.32452 123.53347 6455 ft 164 kts 45°
2026-04-22 10:08 9.33014 123.53879 6404 ft 164 kts 45°
2026-04-22 10:08 9.33847 123.54665 6330 ft 164 kts 45°
2026-04-22 10:08 9.34681 123.55451 6256 ft 164 kts 45°
2026-04-22 10:08 9.35784 123.56490 6116 ft 163 kts 45°
2026-04-22 10:09 9.36329 123.57003 6033 ft 161 kts 45°
2026-04-22 10:09 9.37144 123.57771 5907 ft 159 kts 45°
2026-04-22 10:09 9.37952 123.58534 5780 ft 158 kts 45°
2026-04-22 10:09 9.38757 123.59294 5654 ft 158 kts 45°
2026-04-22 10:10 9.39560 123.60051 5528 ft 158 kts 44°
2026-04-22 10:10 9.40362 123.60807 5402 ft 158 kts 44°
2026-04-22 10:10 9.41164 123.61567 5278 ft 158 kts 47°
2026-04-22 10:10 9.41557 123.62553 5149 ft 156 kts 94°
2026-04-22 10:11 9.41138 123.63555 5027 ft 157 kts 120°
2026-04-22 10:11 9.40665 123.64546 4902 ft 157 kts 118°
2026-04-22 10:11 9.40082 123.65474 4776 ft 156 kts 105°
2026-04-22 10:11 9.40226 123.66484 4652 ft 142 kts 55°
2026-04-22 10:12 9.40993 123.67002 4518 ft 127 kts 32°
2026-04-22 10:12 9.41718 123.67471 4325 ft 120 kts 34°
2026-04-22 10:12 9.42412 123.67897 4172 ft 114 kts 33°
2026-04-22 10:12 9.43096 123.68332 3888 ft 118 kts 36°
2026-04-22 10:13 9.43787 123.68781 3627 ft 119 kts 34°
2026-04-22 10:13 9.44492 123.69205 3369 ft 116 kts 34°
2026-04-22 10:13 9.45175 123.69618 3167 ft 111 kts 31°
2026-04-22 10:13 9.45822 123.70029 2929 ft 110 kts 37°
2026-04-22 10:14 9.46463 123.70450 2688 ft 109 kts 32°
2026-04-22 10:14 9.47106 123.70841 2500 ft 107 kts 34°
2026-04-22 10:14 9.47727 123.71241 2303 ft 107 kts 33°
2026-04-22 10:14 9.48370 123.71642 2096 ft 111 kts 33°
2026-04-22 10:15 9.49045 123.72052 1845 ft 117 kts 33°
2026-04-22 10:15 9.49761 123.72481 1625 ft 117 kts 33°
2026-04-22 10:15 9.50453 123.72899 1466 ft 115 kts 32°
2026-04-22 10:15 9.51134 123.73297 1311 ft 112 kts 34°
2026-04-22 10:16 9.51797 123.73706 1179 ft 109 kts 31°
2026-04-22 10:16 9.52430 123.74092 1039 ft 103 kts 34°
2026-04-22 10:16 9.53000 123.74431 868 ft 94 kts 30°
2026-04-22 10:16 9.53545 123.74759 719 ft 89 kts 30°
2026-04-22 10:17 9.54077 123.75074 611 ft 90 kts 32°
2026-04-22 10:17 9.54617 123.75404 509 ft 90 kts 32°
2026-04-22 10:17 9.55149 123.75717 368 ft 87 kts 31°
2026-04-22 10:17 9.55658 123.76029 247 ft 84 kts 31°
2026-04-22 10:18 9.56163 123.76330 147 ft 85 kts 32°
2026-04-22 10:18 9.56651 123.76621 54 ft 71 kts 32°
2026-04-22 10:18 9.56982 123.76822 44 ft 43 kts 27°
2026-04-22 10:18 9.57135 123.76913 45 ft 11 kts 27°
2026-04-22 10:19 9.57199 123.76951 45 ft 12 kts 32°
2026-04-22 10:19 9.57276 123.76998 46 ft 13 kts 30°
2026-04-22 10:19 9.57352 123.77048 48 ft 11 kts 51°
2026-04-22 10:19 9.57360 123.77097 48 ft 7 kts 115°
2026-04-22 10:20 9.57325 123.77155 48 ft 11 kts 121°
2026-04-22 10:20 9.57297 123.77203 47 ft 9 kts 121°
2026-04-22 10:20 9.57252 123.77252 47 ft 11 kts 172°
2026-04-22 10:20 9.57186 123.77222 46 ft 13 kts 212°
2026-04-22 10:21 9.57118 123.77180 44 ft 4 kts 212°
2026-04-22 10:21 9.57084 123.77184 44 ft 6 kts 136°
2026-04-22 10:21 9.57063 123.77219 44 ft 8 kts 120°
2026-04-22 10:21 9.57044 123.77251 43 ft 0 kts 118°
2026-04-22 10:22 9.57042 123.77255 43 ft 2 kts 120°
2026-04-22 10:22 9.57040 123.77258 43 ft 0 kts 122°